{"data":{"norad_id":55605,"intl_designator":"2023-020AN","name":"STARLINK-5725","alt_names":[],"object_type":"PAYLOAD","status":"ACTIVE","operator":null,"country":"US","launch_date":"2023-02-12","launch_site_code":"AFETR","launch_vehicle":null,"mission":null,"orbit_class":"UNKNOWN","rcs_meters":null,"size_class":null,"mass_kg":null,"dimensions":null,"purposes":["comms"],"wikipedia_slug":null,"has_3d_model":false,"image_url":null,"decayed_at":null,"tle_current":{"epoch":"2026-09-20T21:23:33.102240Z","epoch_age_seconds":66603,"freshness":"FRESH","line1":"1 55605U 23020AN  26263.89135535 -.00000472  00000+0 -76130-5 0  9992","line2":"2 55605  43.0057 331.7695 0001430 275.1435  84.9253 15.27577263198892","mean_motion":15.27577263,"eccentricity":0.000143,"inclination_deg":43.0057,"raan_deg":331.7695,"arg_perigee_deg":275.1435,"mean_anomaly_deg":84.9253,"bstar":-7.613e-6,"rev_number":19889,"period_min":94.266917613842,"perigee_km":482.07614083082,"apogee_km":484.03844239822,"semimajor_km":6861.1942916145,"source":"CELESTRAK","updated_at":"2026-09-21T09:00:33.272996Z"}}}